Lacon, IL

11:40 AM CST on December 12, 2019 (GMT -0600)
Lacon

Weather History for KC75 - October, 2019

Change the Weather History Date:

Thursday, October 17, 2019

  Actual Average (KVYS) Record (KVYS)
Temperature  
Mean Temperature 45 °F -  
Max Temperature 56 °F 63 °F 86 °F (2016)
Min Temperature 34 °F 40 °F 25 °F (1970)
Degree Days  
Heating Degree Days 20    
Moisture  
Dew Point 36 °F    
Average Humidity 76    
Maximum Humidity 96    
Minimum Humidity 46    
Precipitation  
Precipitation 0.00 in - - ()
Sea Level Pressure  
Sea Level Pressure 30.04 in    
Wind  
Wind Speed 1 mph (NW)    
Max Wind Speed 7 mph    
Max Gust Speed -    
Visibility 10 miles    
Events      
Averages and records for this station are not official NWS values.
T = Trace of Precipitation, MM = Missing Value Source: NWS Daily Summary

Daily Weather History Graph

Daily Weather History Graph

Search for Another Location

Airport or City:

Astronomy

Oct. 17, 2019 Rise Set
Actual Time 7:10 AM CDT 6:13 PM CDT
Civil Twilight 6:42 AM CDT 6:41 PM CDT
Nautical Twilight 6:11 AM CDT 7:13 PM CDT
Astronomical Twilight 5:39 AM CDT 7:45 PM CDT
Moon 8:44 PM CDT (10/17) 10:43 AM CDT (10/17)
Length of Visible Light 11h 58m
Length of Day
11h 03m
Waning Gibbous, 86% of the Moon is Illuminated
Oct 17
Waning Gibbous
Oct 21
Last Quarter
Oct 27
New
Nov 4
First Quarter
Nov 12
Full

Hourly Weather History & Observations

Time (CDT) Temp. Windchill Dew Point Humidity Pressure Visibility Wind Dir Wind Speed Gust Speed Precip Events Conditions
12:15 AM 39.6 °F 37.4 °F 35.8 °F 86% 30.06 in 10.0 mi NNW 3.5 mph - N/A   Clear
12:35 AM 39.6 °F - 35.4 °F 85% 30.06 in 10.0 mi Calm Calm - N/A   Clear
12:55 AM 38.1 °F - 35.1 °F 89% 30.06 in 10.0 mi Calm Calm - N/A   Clear
1:15 AM 37.4 °F - 34.7 °F 90% 30.07 in 10.0 mi Calm Calm - N/A   Clear
1:35 AM 37.4 °F - 34.7 °F 90% 30.06 in 10.0 mi Calm Calm - N/A   Clear
1:55 AM 37.0 °F - 34.3 °F 90% 30.06 in 10.0 mi Calm Calm - N/A   Clear
2:15 AM 36.7 °F - 34.7 °F 93% 30.07 in 10.0 mi Calm Calm - N/A   Clear
2:35 AM 37.2 °F - 34.9 °F 91% 30.07 in 10.0 mi Calm Calm - N/A   Clear
2:55 AM 39.4 °F - 36.0 °F 88% 30.06 in 10.0 mi Calm Calm - N/A   Clear
3:15 AM 40.1 °F - 36.5 °F 87% 30.06 in 10.0 mi Calm Calm - N/A   Clear
3:35 AM 40.1 °F - 36.1 °F 86% 30.05 in 10.0 mi Calm Calm - N/A   Clear
3:55 AM 38.5 °F - 35.8 °F 90% 30.05 in 10.0 mi Calm Calm - N/A   Clear
4:15 AM 37.4 °F - 35.6 °F 93% 30.05 in 10.0 mi Calm Calm - N/A   Clear
4:35 AM 38.5 °F - 36.5 °F 93% 30.05 in 10.0 mi Calm Calm - N/A   Clear
4:55 AM 38.8 °F - 36.5 °F 91% 30.05 in 10.0 mi Calm Calm - N/A   Clear
5:35 AM 39.4 °F - 35.8 °F 87% 30.05 in 10.0 mi Calm Calm - N/A   Clear
5:55 AM 38.7 °F - 35.6 °F 89% 30.05 in 10.0 mi Calm Calm - N/A   Clear
6:15 AM 36.7 °F - 34.7 °F 93% 30.05 in 10.0 mi Calm Calm - N/A   Clear
6:35 AM 35.6 °F - 33.8 °F 93% 30.05 in 10.0 mi Calm Calm - N/A   Clear
6:55 AM 34.9 °F - 33.4 °F 94% 30.05 in 10.0 mi Calm Calm - N/A   Clear
7:15 AM 34.9 °F - 33.8 °F 96% 30.06 in 10.0 mi Calm Calm - N/A   Clear
7:35 AM 34.9 °F - 33.6 °F 95% 30.06 in 10.0 mi Calm Calm - N/A   Clear
7:55 AM 35.2 °F - 33.6 °F 94% 30.06 in 10.0 mi Calm Calm - N/A   Clear
8:15 AM 38.7 °F - 36.7 °F 93% 30.07 in 10.0 mi Calm Calm - N/A   Clear
8:35 AM 41.4 °F - 36.7 °F 83% 30.07 in 10.0 mi Calm Calm - N/A   Clear
8:55 AM 42.8 °F - 36.5 °F 78% 30.08 in 10.0 mi Calm Calm - N/A   Clear
9:15 AM 44.4 °F - 37.2 °F 76% 30.08 in 10.0 mi Calm Calm - N/A   Clear
9:35 AM 45.5 °F 43.2 °F 37.2 °F 73% 30.08 in 10.0 mi West 4.6 mph - N/A   Clear
9:55 AM 47.3 °F - 37.4 °F 68% 30.08 in 10.0 mi NNW 4.6 mph - N/A   Clear
10:15 AM 48.6 °F - 37.4 °F 65% 30.08 in 10.0 mi NNE 3.5 mph - N/A   Clear
10:35 AM 48.7 °F - 37.4 °F 65% 30.08 in 10.0 mi NW 6.9 mph - N/A   Clear
10:55 AM 50.2 °F - 36.5 °F 59% 30.08 in 10.0 mi NW 5.8 mph - N/A   Clear
11:15 AM 51.3 °F - 36.3 °F 57% 30.08 in 10.0 mi West 4.6 mph - N/A   Clear
11:35 AM 51.8 °F - 36.9 °F 57% 30.07 in 10.0 mi Calm Calm - N/A   Scattered Clouds
11:55 AM 51.8 °F - 36.0 °F 55% 30.07 in 10.0 mi West 4.6 mph - N/A   Clear
12:15 PM 52.7 °F - 36.9 °F 55% 30.07 in 10.0 mi Calm Calm - N/A   Scattered Clouds
12:35 PM 53.4 °F - 36.5 °F 53% 30.06 in 10.0 mi Calm Calm - N/A   Scattered Clouds
12:55 PM 53.6 °F - 36.3 °F 52% 30.05 in 10.0 mi WNW 4.6 mph - N/A   Scattered Clouds
1:15 PM 54.1 °F - 36.9 °F 52% 30.05 in 10.0 mi WNW 3.5 mph - N/A   Clear
1:35 PM 54.0 °F - 36.0 °F 51% 30.04 in 10.0 mi Calm Calm - N/A   Clear
1:55 PM 54.5 °F - 36.1 °F 50% 30.03 in 10.0 mi Calm Calm - N/A   Clear
2:15 PM 54.9 °F - 36.5 °F 50% 30.03 in 10.0 mi Calm Calm - N/A   Clear
2:35 PM 55.2 °F - 35.6 °F 48% 30.03 in 10.0 mi West 3.5 mph - N/A   Scattered Clouds
2:55 PM 55.9 °F - 36.9 °F 49% 30.02 in 10.0 mi Calm Calm - N/A   Clear
3:15 PM 56.5 °F - 36.9 °F 48% 30.01 in 10.0 mi Calm Calm - N/A   Clear
3:35 PM 56.1 °F - 36.3 °F 47% 30.00 in 10.0 mi Calm Calm - N/A   Clear
3:55 PM 56.7 °F - 37.0 °F 48% 30.00 in 10.0 mi North 3.5 mph - N/A   Clear
4:15 PM 56.7 °F - 36.1 °F 46% 30.00 in 10.0 mi Calm Calm - N/A   Clear
4:30 PM 56.5 °F - 36.9 °F 48% 30.00 in 10.0 mi Calm Calm - N/A   Clear
4:55 PM 56.3 °F - 36.9 °F 48% 30.00 in 10.0 mi Calm Calm - N/A   Clear
5:15 PM 55.8 °F - 36.9 °F 49% 30.00 in 10.0 mi Calm Calm - N/A   Clear
5:35 PM 54.5 °F - 37.6 °F 53% 30.00 in 10.0 mi Calm Calm - N/A   Clear
5:55 PM 52.2 °F - 38.1 °F 59% 30.00 in 10.0 mi ENE 3.5 mph - N/A   Clear
6:15 PM 48.9 °F - 39.7 °F 71% 30.00 in 10.0 mi Calm Calm - N/A   Clear
6:35 PM 46.6 °F - 39.6 °F 77% 30.00 in 10.0 mi Calm Calm - N/A   Clear
6:55 PM 44.1 °F - 39.0 °F 82% 30.00 in 10.0 mi Calm Calm - N/A   Clear
7:15 PM 43.5 °F 41.9 °F 38.8 °F 84% 30.01 in 10.0 mi South 3.5 mph - N/A   Clear
7:35 PM 42.1 °F - 38.8 °F 88% 30.01 in 10.0 mi Calm Calm - N/A   Clear
7:55 PM 42.8 °F - 37.9 °F 83% 30.01 in 10.0 mi Calm Calm - N/A   Clear
8:15 PM 42.3 °F - 38.5 °F 86% 30.01 in 10.0 mi Calm Calm - N/A   Clear
8:35 PM 40.3 °F - 37.4 °F 89% 30.01 in 10.0 mi Calm Calm - N/A   Clear
8:55 PM 40.6 °F - 37.4 °F 88% 30.01 in 10.0 mi Calm Calm - N/A   Clear
9:15 PM 40.3 °F - 37.4 °F 89% 30.02 in 10.0 mi Calm Calm - N/A   Clear
9:35 PM 39.4 °F - 36.9 °F 91% 30.02 in 10.0 mi Calm Calm - N/A   Clear
9:55 PM 38.8 °F - 36.7 °F 92% 30.02 in 10.0 mi Calm Calm - N/A   Clear
10:15 PM 38.7 °F - 36.7 °F 93% 30.02 in 10.0 mi Calm Calm - N/A   Clear
10:35 PM 37.4 °F - 35.6 °F 93% 30.03 in 10.0 mi Calm Calm - N/A   Clear
10:55 PM 37.0 °F - 35.1 °F 93% 30.02 in 10.0 mi Calm Calm - N/A   Clear
11:10 PM 37.8 °F - 35.8 °F 93% 30.02 in 10.0 mi Calm Calm - N/A   Clear
11:35 PM 37.6 °F - 35.4 °F 92% 30.03 in 10.0 mi Calm Calm - N/A   Clear
11:55 PM 37.2 °F - 35.1 °F 92% 30.02 in 10.0 mi Calm Calm - N/A   Clear